• In Portugal
  • List of Countries
  • For 7 days
  • Water Temperature
  • Satellite Maps
  • Weather Map
  • Weather Widgets
  • user-avatar
    Login

    Hourly Weather Pokhara

    Today, 21 February, Wednesday

    Time Temperature Precipitation Wind Pressure Humidity
    00:00 +14°C° 0 mm 2 mps 683 mmHg 62%
    01:00 +14°C° 0 mm 2 mps 683 mmHg 60%
    02:00 +14°C° 0 mm 2 mps 682 mmHg 58%
    03:00 +14°C° 0 mm 2 mps 682 mmHg 56%
    04:00 +14°C° 0 mm 2 mps 682 mmHg 54%
    05:00 +14°C° 0 mm 2 mps 682 mmHg 52%
    06:00 +14°C° 0 mm 2 mps 682 mmHg 50%
    07:00 +15°C° 0 mm 1 mps 682 mmHg 46%
    08:00 +18°C° 0 mm 1 mps 683 mmHg 42%
    09:00 +18°C° 0 mm 0 mps 683 mmHg 39%
    10:00 +21°C° 0 mm 1 mps 683 mmHg 40%
    11:00 +23°C° 0 mm 2 mps 683 mmHg 41%
    12:00 +24°C° 0 mm 2 mps 683 mmHg 42%
    13:00 +24°C° 0.4 mm 2 mps 682 mmHg 45%
    14:00 +24°C° 0.4 mm 2 mps 682 mmHg 48%
    15:00 +24°C° 0.4 mm 2 mps 681 mmHg 51%
    16:00 +23°C° 0.6 mm 2 mps 681 mmHg 56%
    17:00 +20°C° 0.6 mm 2 mps 681 mmHg 61%
    18:00 +20°C° 0.6 mm 1 mps 680 mmHg 66%
    19:00 +19°C° 0.3 mm 1 mps 681 mmHg 68%
    20:00 +18°C° 0.3 mm 1 mps 681 mmHg 71%
    21:00 +16°C° 0.3 mm 1 mps 682 mmHg 74%
    22:00 +16°C° 0.2 mm 1 mps 682 mmHg 73%
    23:00 +15°C° 0.2 mm 1 mps 682 mmHg 72%

    Tomorrow, 22 February, Thursday

    Time Temperature Precipitation Wind Pressure Humidity
    00:00 +15°C° 0.2 mm 1 mps 682 mmHg 72%
    01:00 +15°C° 0.1 mm 1 mps 681 mmHg 70%
    02:00 +15°C° 0.1 mm 1 mps 681 mmHg 69%
    03:00 +15°C° 0.1 mm 1 mps 681 mmHg 67%
    04:00 +14°C° 0.1 mm 1 mps 681 mmHg 66%
    05:00 +14°C° 0.1 mm 1 mps 680 mmHg 64%
    06:00 +14°C° 0.1 mm 1 mps 680 mmHg 63%
    07:00 +15°C° 0.1 mm 1 mps 681 mmHg 59%
    08:00 +18°C° 0.1 mm 1 mps 682 mmHg 54%
    09:00 +19°C° 0.1 mm 1 mps 682 mmHg 50%
    10:00 +20°C° 0.1 mm 2 mps 682 mmHg 49%
    11:00 +21°C° 0.1 mm 2 mps 682 mmHg 47%
    12:00 +24°C° 0.1 mm 2 mps 682 mmHg 45%
    13:00 +24°C° 0.4 mm 2 mps 682 mmHg 47%
    14:00 +24°C° 0.4 mm 2 mps 681 mmHg 48%
    15:00 +23°C° 0.4 mm 2 mps 680 mmHg 50%
    16:00 +21°C° 0.4 mm 2 mps 680 mmHg 54%
    17:00 +21°C° 0.4 mm 1 mps 680 mmHg 59%
    18:00 +20°C° 0.4 mm 1 mps 680 mmHg 63%
    19:00 +19°C° 0.2 mm 1 mps 681 mmHg 65%
    20:00 +16°C° 0.2 mm 1 mps 681 mmHg 67%
    21:00 +15°C° 0.2 mm 2 mps 682 mmHg 69%
    22:00 +15°C° 0.1 mm 2 mps 682 mmHg 68%
    23:00 +15°C° 0.1 mm 2 mps 682 mmHg 66%

    Day after tomorrow, 23 February, Friday

    Time Temperature Precipitation Wind Pressure Humidity
    00:00 +15°C° 0.1 mm 2 mps 682 mmHg 65%
    01:00 +15°C° 0.1 mm 2 mps 682 mmHg 64%
    02:00 +14°C° 0.1 mm 2 mps 682 mmHg 63%
    03:00 +14°C° 0.1 mm 2 mps 681 mmHg 62%
    04:00 +14°C° 0 mm 2 mps 681 mmHg 61%
    05:00 +14°C° 0 mm 2 mps 681 mmHg 60%
    06:00 +13°C° 0 mm 2 mps 681 mmHg 58%
    07:00 +15°C° 0 mm 2 mps 682 mmHg 54%
    08:00 +18°C° 0 mm 1 mps 683 mmHg 49%
    09:00 +20°C° 0 mm 1 mps 684 mmHg 45%
    10:00 +21°C° 0 mm 1 mps 683 mmHg 44%
    11:00 +23°C° 0 mm 2 mps 683 mmHg 44%
    12:00 +25°C° 0 mm 2 mps 683 mmHg 44%
    13:00 +25°C° 0.2 mm 2 mps 683 mmHg 44%
    14:00 +25°C° 0.2 mm 2 mps 682 mmHg 45%
    15:00 +25°C° 0.2 mm 3 mps 681 mmHg 46%
    16:00 +24°C° 0.2 mm 2 mps 681 mmHg 51%
    17:00 +21°C° 0.2 mm 2 mps 681 mmHg 56%
    18:00 +21°C° 0.2 mm 1 mps 681 mmHg 61%
    19:00 +19°C° 0.1 mm 1 mps 682 mmHg 63%
    20:00 +18°C° 0.1 mm 1 mps 683 mmHg 65%
    21:00 +16°C° 0.1 mm 2 mps 683 mmHg 67%
    22:00 +16°C° 0 mm 2 mps 683 mmHg 65%
    23:00 +16°C° 0 mm 2 mps 683 mmHg 64%

    24 February, Saturday

    Time Temperature Precipitation Wind Pressure Humidity
    00:00 +15°C° 0 mm 2 mps 683 mmHg 62%
    01:00 +15°C° 0 mm 2 mps 683 mmHg 59%
    02:00 +15°C° 0 mm 2 mps 683 mmHg 56%
    03:00 +14°C° 0 mm 2 mps 683 mmHg 52%
    04:00 +13°C° 0 mm 3 mps 683 mmHg 48%
    05:00 +13°C° 0 mm 3 mps 683 mmHg 43%
    06:00 +13°C° 0 mm 3 mps 683 mmHg 39%
    07:00 +16°C° 0 mm 2 mps 684 mmHg 36%
    08:00 +19°C° 0 mm 1 mps 685 mmHg 33%
    09:00 +19°C° 0 mm 0 mps 686 mmHg 30%
    10:00 +23°C° 0 mm 1 mps 686 mmHg 30%
    11:00 +24°C° 0 mm 1 mps 686 mmHg 31%
    12:00 +26°C° 0 mm 2 mps 686 mmHg 31%
    13:00 +26°C° 0 mm 2 mps 686 mmHg 33%
    14:00 +26°C° 0 mm 2 mps 685 mmHg 35%
    15:00 +26°C° 0 mm 2 mps 684 mmHg 36%
    16:00 +24°C° 0 mm 2 mps 684 mmHg 42%
    17:00 +22°C° 0 mm 1 mps 684 mmHg 49%
    18:00 +20°C° 0 mm 1 mps 684 mmHg 55%
    19:00 +19°C° 0 mm 1 mps 684 mmHg 54%
    20:00 +17°C° 0 mm 2 mps 685 mmHg 54%
    21:00 +16°C° 0 mm 2 mps 685 mmHg 54%
    22:00 +16°C° 0 mm 2 mps 685 mmHg 51%
    23:00 +16°C° 0 mm 2 mps 685 mmHg 48%

    25 February, Sunday

    Time Temperature Precipitation Wind Pressure Humidity
    00:00 +16°C° 0 mm 2 mps 685 mmHg 46%
    01:00 +15°C° 0 mm 2 mps 685 mmHg 44%
    02:00 +15°C° 0 mm 2 mps 684 mmHg 42%
    03:00 +15°C° 0 mm 2 mps 684 mmHg 40%
    04:00 +15°C° 0 mm 2 mps 684 mmHg 38%
    05:00 +13°C° 0 mm 3 mps 684 mmHg 36%
    06:00 +13°C° 0 mm 3 mps 684 mmHg 34%
    07:00 +17°C° 0 mm 2 mps 685 mmHg 32%
    08:00 +20°C° 0 mm 1 mps 686 mmHg 30%
    09:00 +20°C° 0 mm 0 mps 687 mmHg 28%
    10:00 +24°C° 0 mm 1 mps 687 mmHg 29%
    11:00 +25°C° 0 mm 1 mps 687 mmHg 30%
    12:00 +26°C° 0 mm 2 mps 687 mmHg 30%
    13:00 +26°C° 0 mm 2 mps 686 mmHg 32%
    14:00 +27°C° 0 mm 2 mps 685 mmHg 33%
    15:00 +27°C° 0 mm 2 mps 684 mmHg 34%
    16:00 +25°C° 0 mm 2 mps 684 mmHg 39%
    17:00 +23°C° 0 mm 1 mps 684 mmHg 43%
    18:00 +21°C° 0 mm 1 mps 684 mmHg 48%
    19:00 +19°C° 0 mm 2 mps 684 mmHg 44%
    20:00 +18°C° 0 mm 2 mps 684 mmHg 40%
    21:00 +16°C° 0 mm 3 mps 685 mmHg 36%
    22:00 +16°C° 0 mm 3 mps 685 mmHg 33%
    23:00 +16°C° 0 mm 3 mps 685 mmHg 30%

    26 February, Monday

    Time Temperature Precipitation Wind Pressure Humidity
    00:00 +16°C° 0 mm 3 mps 684 mmHg 28%
    01:00 +16°C° 0 mm 3 mps 684 mmHg 26%
    02:00 +16°C° 0 mm 3 mps 684 mmHg 24%
    03:00 +14°C° 0 mm 3 mps 684 mmHg 22%
    04:00 +14°C° 0 mm 3 mps 683 mmHg 20%
    05:00 +14°C° 0 mm 3 mps 683 mmHg 18%
    06:00 +14°C° 0 mm 3 mps 683 mmHg 16%
    07:00 +18°C° 0 mm 2 mps 684 mmHg 18%
    08:00 +21°C° 0 mm 1 mps 685 mmHg 20%
    09:00 +21°C° 0 mm 0 mps 685 mmHg 22%
    10:00 +25°C° 0 mm 1 mps 685 mmHg 22%
    11:00 +26°C° 0 mm 2 mps 685 mmHg 23%
    12:00 +28°C° 0 mm 2 mps 685 mmHg 23%
    13:00 +28°C° 0 mm 2 mps 684 mmHg 25%
    14:00 +28°C° 0 mm 2 mps 683 mmHg 27%
    15:00 +28°C° 0 mm 2 mps 682 mmHg 30%
    16:00 +26°C° 0 mm 2 mps 682 mmHg 36%
    17:00 +24°C° 0 mm 1 mps 682 mmHg 42%
    18:00 +22°C° 0 mm 1 mps 682 mmHg 48%
    19:00 +21°C° 0 mm 1 mps 683 mmHg 48%
    20:00 +18°C° 0 mm 2 mps 683 mmHg 48%
    21:00 +17°C° 0 mm 2 mps 683 mmHg 48%
    22:00 +17°C° 0 mm 3 mps 683 mmHg 44%
    23:00 +17°C° 0 mm 3 mps 683 mmHg 40%
    Show more